Weather History for KMAN - January, 2013

Change the Weather History Date:

Monday, January 7, 2013

  Actual Average (KBOI) Record (KBOI)
Temperature  
Mean Temperature 16 °F 30 °F  
Max Temperature 23 °F 37 °F 59 °F (1902)
Min Temperature 8 °F 24 °F -14 °F (1937)
Degree Days  
Heating Degree Days 50 35  
Month to date heating degree days 245  
Since 1 July heating degree days 2560  
Cooling Degree Days 0 0  
Month to date cooling degree days 0  
Year to date cooling degree days 0  
Moisture  
Dew Point 17 °F    
Average Humidity 96    
Maximum Humidity 100    
Minimum Humidity 85    
Precipitation  
Precipitation 0.06 in 0.04 in 0.35 in (1960)
Month to date precipitation 0.32  
Year to date precipitation 0.32  
Snow  
Snow 0.00 in 0.20 in 4.60 in (1910)
Month to date snowfall 1.5  
Since 1 July snowfall 11.2  
Snow Depth -    
Sea Level Pressure  
Sea Level Pressure 30.24 in    
Wind  
Wind Speed 6 mph (SSE)    
Max Wind Speed 15 mph    
Max Gust Speed 21 mph    
Visibility 4 miles    
Events      
T = Trace of Precipitation, MM = Missing Value Source: NWS Daily Summary

Daily Weather History Graph

Daily Weather History Graph

Search for Another Location

Airport or City:

Trip Planner

Search our weather history database for the weather conditions in past years. The results will help you decide how hot, cold, wet, or windy it might be!

Date:

Astronomy

Jan. 07, 2013 Rise Set
Actual Time 8:18 AM MST 5:26 PM MST
Civil Twilight 7:46 AM MST 5:58 PM MST
Nautical Twilight 7:10 AM MST 6:34 PM MST
Astronomical Twilight 6:36 AM MST 7:09 PM MST
Moon 3:46 AM MST (1/7) 1:42 PM MST (1/7)
Length of Visible Light 10h 12m
Length of Day
9h 07m
Waning Crescent, 22% of the Moon is Illuminated
Jan 7
Waning Crescent
Jan 11
New
Jan 18
First Quarter
Jan 26
Full
Feb 3
Last Quarter

Hourly Weather History & Observations

Time (MST) Temp. Windchill Dew Point Humidity Pressure Visibility Wind Dir Wind Speed Gust Speed Precip Events Conditions
12:15 AM 10.4 °F -0.4 °F 8.6 °F 92% 30.28 in 5.0 mi SE 6.9 mph - N/A   Clear
12:35 AM 10.4 °F 0.8 °F 8.6 °F 92% 30.28 in 5.0 mi SE 5.8 mph - N/A   Clear
12:55 AM 10.4 °F 0.8 °F 8.6 °F 92% 30.28 in 5.0 mi SSE 5.8 mph - N/A   Clear
1:15 AM 8.6 °F -1.3 °F 8.6 °F 100% 30.27 in 5.0 mi SE 5.8 mph - N/A   Clear
1:35 AM 8.6 °F 0.1 °F 6.8 °F 92% 30.26 in 5.0 mi ESE 4.6 mph - N/A   Clear
1:55 AM 10.4 °F 0.8 °F 6.8 °F 85% 30.25 in 6.0 mi ESE 5.8 mph - N/A   Clear
2:35 AM 10.4 °F 2.2 °F 8.6 °F 92% 30.24 in 5.0 mi SSE 4.6 mph - N/A   Overcast
2:55 AM 12.2 °F 4.3 °F 8.6 °F 85% 30.27 in 6.0 mi SE 4.6 mph - N/A   Overcast
3:15 AM 14.0 °F 8.2 °F 10.4 °F 86% 30.27 in 5.0 mi SE 3.5 mph - N/A   Overcast
3:35 AM 14.0 °F 2.9 °F 10.4 °F 86% 30.26 in 5.0 mi SE 8.1 mph - N/A   Overcast
3:55 AM 12.2 °F 1.7 °F 10.4 °F 92% 30.26 in 5.0 mi SSE 6.9 mph - N/A   Overcast
4:15 AM 12.2 °F 2.9 °F 10.4 °F 92% 30.26 in 5.0 mi SE 5.8 mph - N/A   Overcast
4:35 AM 14.0 °F 3.9 °F 10.4 °F 86% 30.24 in 5.0 mi SE 6.9 mph - N/A   Overcast
4:55 AM 14.0 °F 3.9 °F 10.4 °F 86% 30.24 in 5.0 mi SE 6.9 mph - N/A   Overcast
5:35 AM 14.0 °F 5.1 °F 10.4 °F 86% 30.25 in 5.0 mi SE 5.8 mph - N/A   Scattered Clouds
5:55 AM 14.0 °F 6.5 °F 10.4 °F 86% 30.26 in 5.0 mi SSE 4.6 mph - N/A   Mostly Cloudy
6:35 AM 14.0 °F 3.9 °F 12.2 °F 93% 30.27 in 6.0 mi SSE 6.9 mph - N/A   Overcast
6:55 AM 14.0 °F 5.1 °F 12.2 °F 93% 30.26 in 5.0 mi SE 5.8 mph - N/A   Overcast
7:15 AM 14.0 °F 3.9 °F 12.2 °F 93% 30.24 in 5.0 mi SE 6.9 mph - N/A   Overcast
7:55 AM 15.8 °F 8.6 °F 14.0 °F 93% 30.26 in 7.0 mi SSE 4.6 mph - N/A   Overcast
8:35 AM 17.6 °F 7.3 °F 15.8 °F 93% 30.25 in 1.5 mi SE 8.1 mph - N/A   Scattered Clouds
8:55 AM 17.6 °F 3.2 °F 17.6 °F 100% 30.24 in 1.0 mi SE 15.0 mph - N/A   Clear
9:15 AM 17.6 °F 5.7 °F 17.6 °F 100% 30.25 in 1.5 mi SSE 10.4 mph 17.3 mph N/A   Clear
9:35 AM 17.6 °F 3.7 °F 17.6 °F 100% 30.24 in 1.5 mi SSE 13.8 mph 18.4 mph N/A   Clear
9:55 AM 17.6 °F 4.3 °F 17.6 °F 100% 30.25 in 1.5 mi SSE 12.7 mph 20.7 mph N/A   Clear
10:15 AM 17.6 °F 4.3 °F 17.6 °F 100% 30.25 in 1.5 mi SSE 12.7 mph 16.1 mph N/A   Clear
10:35 AM 19.4 °F 6.0 °F 17.6 °F 93% 30.25 in 1.0 mi SE 13.8 mph - N/A   Clear
11:15 AM 19.4 °F 6.6 °F 19.4 °F 100% 30.25 in 0.8 mi SSE 12.7 mph - N/A   Unknown
11:55 AM 19.4 °F 9.5 °F 19.4 °F 100% 30.23 in 0.5 mi SSE 8.1 mph - N/A   Mostly Cloudy
12:15 PM 19.4 °F 9.5 °F 19.4 °F 100% 30.22 in 0.2 mi SSE 8.1 mph - N/A   Overcast
12:35 PM 19.4 °F 9.5 °F 19.4 °F 100% 30.22 in 0.5 mi South 8.1 mph - N/A   Overcast
12:55 PM 21.2 °F 11.7 °F 21.2 °F 100% 30.21 in 0.2 mi South 8.1 mph - 0.01 in   Overcast
1:15 PM 19.4 °F 14.3 °F 19.4 °F 100% 30.21 in 0.5 mi SSW 3.5 mph - 0.01 in   Overcast
1:35 PM 19.4 °F 14.3 °F 19.4 °F 100% 30.20 in 1.0 mi SSW 3.5 mph - 0.02 in   Mostly Cloudy
1:55 PM 19.4 °F 12.8 °F 19.4 °F 100% 30.19 in 1.2 mi SSW 4.6 mph - 0.02 in   Scattered Clouds
2:35 PM 19.4 °F - 19.4 °F 100% 30.21 in 1.2 mi Calm Calm - 0.01 in   Unknown
2:55 PM 21.2 °F 14.9 °F 21.2 °F 100% 30.20 in 1.0 mi SW 4.6 mph - 0.01 in   Clear
3:15 PM 21.2 °F 13.6 °F 21.2 °F 100% 30.21 in 1.8 mi SW 5.8 mph - N/A   Scattered Clouds
3:35 PM 21.2 °F 14.9 °F 21.2 °F 100% 30.21 in 1.5 mi WSW 4.6 mph - N/A   Mostly Cloudy
3:55 PM 21.2 °F - 21.2 °F 100% 30.22 in 1.8 mi Calm Calm - N/A   Mostly Cloudy
4:15 PM 21.2 °F - 21.2 °F 100% 30.22 in 1.5 mi Calm Calm - N/A   Overcast
4:55 PM 23.0 °F - 23.0 °F 100% 30.23 in 3.0 mi Calm Calm - 0.01 in   Overcast
5:15 PM 21.2 °F 16.4 °F 21.2 °F 100% 30.23 in 3.0 mi North 3.5 mph - 0.01 in   Mostly Cloudy
5:55 PM 23.0 °F - 23.0 °F 100% 30.23 in 6.0 mi Calm Calm - 0.01 in   Overcast
6:15 PM 23.0 °F - 23.0 °F 100% 30.24 in 7.0 mi Calm Calm - N/A   Overcast
6:35 PM 23.0 °F - 23.0 °F 100% 30.23 in 6.0 mi Calm Calm - N/A   Overcast
7:15 PM 23.0 °F - 23.0 °F 100% 30.23 in 6.0 mi North - - N/A   Overcast
7:35 PM 23.0 °F 15.8 °F 23.0 °F 100% 30.23 in 5.0 mi West 5.8 mph - N/A   Overcast
7:55 PM 21.2 °F 13.6 °F 21.2 °F 100% 30.23 in 5.0 mi West 5.8 mph - N/A   Overcast
8:15 PM 21.2 °F 13.6 °F 21.2 °F 100% 30.22 in 5.0 mi WSW 5.8 mph - N/A   Overcast
8:35 PM 19.4 °F - 19.4 °F 100% 30.21 in 5.0 mi Calm Calm - N/A   Overcast
8:55 PM 19.4 °F - 19.4 °F 100% 30.23 in 5.0 mi Calm Calm - N/A   Overcast
9:15 PM 19.4 °F - 19.4 °F 100% 30.22 in 5.0 mi Calm Calm - N/A   Overcast
9:35 PM 19.4 °F 12.8 °F 19.4 °F 100% 30.23 in 5.0 mi West 4.6 mph - N/A   Overcast
9:55 PM 19.4 °F 14.3 °F 19.4 °F 100% 30.24 in 5.0 mi WNW 3.5 mph - N/A   Overcast
10:15 PM 19.4 °F 12.8 °F 19.4 °F 100% 30.23 in 3.0 mi West 4.6 mph - N/A   Overcast
10:55 PM 19.4 °F - 19.4 °F 100% 30.23 in 3.0 mi Calm Calm - N/A   Overcast
11:15 PM 19.4 °F - 19.4 °F 100% 30.22 in 3.0 mi Calm Calm - N/A   Overcast
11:35 PM 19.4 °F - 19.4 °F 100% 30.22 in 3.0 mi Calm Calm - N/A   Overcast
11:55 PM 19.4 °F - 19.4 °F 100% 30.23 in 4.0 mi Calm Calm - N/A   Overcast